Regional Weather Roundup
Issued by NWS

Home | Current Version | Previous Version | Text Only | Print | Product List | Glossary Off
Versions: 1 2 3 4 5 6 7 8 9 10 11 12 13 14 15 16 17 18 19 20 21 22 23 24 25 26 27 28 29 30 31 32 33 34 35 36 37 38 39 40 41 42 43 44 45 46 47 48 49 50

654
ASUS45 KCYS 220110
RWRWY

WYOMING REGIONAL WEATHER ROUNDUP
NATIONAL WEATHER SERVICE CHEYENNE WY
700 PM MDT MON AUG 21 2017

NOTE:  "FAIR" INDICATES FEW OR NO CLOUDS BELOW 12,000 FEET
WITH NO SIGNIFICANT WEATHER AND/OR OBSTRUCTIONS TO VISIBILITY.

WYZ001-220200-
YELLOWSTONE NATIONAL PARK

CITY           SKY/WX    TMP DP  RH WIND       PRES   REMARKS
LK YELLOWSTONE   N/A     66  36  32 CALM      30.37S
W YELLOWSTONE  NOT AVBL

$$
WYZ002>013-054>058-071-098>099-220200-
NORTHERN WYOMING

CITY           SKY/WX    TMP DP  RH WIND       PRES   REMARKS
JACKSON        FAIR      77  30  17 N8        30.26S
CODY           FAIR      71  37  28 N8        30.22S
GREYBULL       FAIR      83  29  14 N12       30.10S
WORLAND        FAIR      80  37  21 N7        30.12S
SHERIDAN       FAIR      78  39  24 W3        30.17S
BUFFALO        FAIR      76  29  17 CALM      30.24R
GILLETTE       FAIR      75  32  20 NE9       30.19F
HULETT         FAIR      72  34  25 NE5       30.21S
NEWCASTLE      FAIR      73  32  21 N14       30.17S

$$
WYZ014>020-022>026-101>103-220200-
CENTRAL WYOMING

CITY           SKY/WX    TMP DP  RH WIND       PRES   REMARKS
BIG PINEY      FAIR      77  29  17 NW12      30.29S
PINEDALE       FAIR      75  23  14 W10       30.30S
DUBOIS         FAIR      73  19  13 NW9       30.29R
LANDER           N/A    N/A N/A N/A MISG      30.17F
RIVERTON       FAIR      81  33  17 NE10      30.17S
CASPER         FAIR      77  36  22 E14       30.19S
DOUGLAS        FAIR      75  37  25 NE9       30.21S

$$
WYZ021-027>030-104>119-220200-
SOUTHERN WYOMING

CITY           SKY/WX    TMP DP  RH WIND       PRES   REMARKS
EVANSTON       FAIR      78  35  21 NW13      30.30F
KEMMERER         N/A    N/A N/A N/A NW13G21   30.32S
FORT BRIDGER   FAIR      82  30  15 NW9G16    30.32S
ROCK SPRINGS   FAIR      81  28  14 NW5       30.25S
RAWLINS        FAIR      80  28  15 NW10      30.25R
SARATOGA       MOCLDY    77  36  22 CALM      30.28S
LARAMIE        FAIR      72  35  25 E14       30.31R
CHEYENNE       FAIR      72  47  40 E10       30.26R
TORRINGTON     FAIR      77  44  30 E14       30.14R
PINE BLUFFS    FAIR      73  43  33 NE9       30.21R

$$




USA.gov is the U.S. government's official web portal to all federal, state and local government web resources and services.